Temperature
27 26 25 25 28 30 29 30 30 29 29 29 28 27 26 25 24 22 22 21 20 19 19 19 19 19 18 18 18 18 18 18 18 18 18 18 18 18 18 18 18 18 18 18 18 18 18 18 18
26 25 26 28 30 29 29 30 30 29 29 29 28 27 26 25 24 22 22 21 20 19 19 19 19 19 18 18 18 18 18 18 18 18 18 18 18 18 18 18 18 18 18 18 18 18 18 18 18
26 26 29 31 31 30 29 30 30 30 29 29 28 26 26 24 23 22 21 21 20 19 19 19 19 19 18 18 18 18 18 18 18 18 18 18 18 18 18 18 18 18 18 18 18 18 18 18 18
26 29 32 33 31 31 31 31 31 31 30 29 28 26 24 24 23 22 22 21 20 19 19 20 19 19 19 18 18 18 18 18 18 18 18 18 18 18 18 18 18 18 18 18 18 18 18 18 18
28 32 33 32 32 32 32 32 31 30 30 28 27 25 24 23 23 22 22 21 21 20 19 20 19 19 19 18 18 18 18 18 18 18 18 18 18 18 18 18 18 18 18 18 18 18 18 18 18
31 33 32 32 32 32 33 32 31 30 29 28 27 25 24 23 23 22 22 22 21 20 19 20 20 19 19 19 18 18 18 18 18 18 18 18 18 18 18 18 18 18 18 18 18 18 18 18 18
33 33 32 32 32 32 32 32 31 31 30 29 27 26 24 24 23 23 22 22 21 21 20 20 20 19 19 19 19 18 18 18 18 18 18 18 18 18 18 18 18 18 18 18 18 18 18 18 18
34 34 33 33 32 32 32 32 31 31 30 29 28 27 25 23 23 23 22 22 21 21 20 20 19 19 19 19 19 19 18 18 18 18 18 18 18 18 18 18 18 18 18 18 18 18 18 18 18
35 33 33 33 32 32 33 32 31 30 30 29 28 27 25 24 23 23 22 22 21 21 21 20 20 19 19 19 19 19 18 18 18 18 18 18 18 18 18 18 18 18 18 18 18 18 18 18 18
35 33 33 34 34 33 33 32 32 31 30 28 27 25 24 24 23 23 23 22 21 21 21 20 20 20 19 19 19 18 18 18 18 18 18 18 18 18 18 18 18 18 18 18 18 18 18 18 18
36 34 35 35 34 34 33 33 32 32 30 29 27 25 25 24 24 24 23 23 22 21 21 20 20 20 20 19 19 18 18 18 18 18 18 18 18 18 18 18 18 18 18 18 18 18 18 18 18
36 35 35 35 34 34 34 33 33 32 30 29 27 26 25 25 25 24 24 23 22 22 21 20 20 20 20 19 19 19 19 18 18 18 18 18 18 18 18 18 18 18 18 18 18 18 18 18 18
36 36 35 35 35 34 34 33 33 31 30 29 27 27 26 25 25 25 24 23 22 21 21 20 20 20 19 19 19 19 19 19 18 18 18 18 18 18 18 18 18 18 18 18 18 18 18 18 18
36 36 35 35 35 34 33 32 32 31 30 29 28 27 27 26 25 24 24 23 22 21 21 20 20 20 19 19 19 19 19 19 19 18 18 18 18 18 18 18 18 18 18 18 18 18 18 18 18
36 35 35 35 35 34 32 31 31 31 30 29 29 28 27 26 26 25 24 23 22 21 21 20 20 20 20 19 19 19 19 19 19 18 18 18 18 18 18 18 18 18 18 18 18 18 18 18 18
36 34 32 34 35 34 33 30 32 31 30 30 29 28 27 27 26 25 24 23 22 21 21 20 20 20 20 19 19 19 19 19 19 19 18 18 18 18 18 18 18 18 18 18 18 18 18 18 18
34 32 32 33 35 35 34 32 32 32 31 30 30 29 28 26 26 25 24 23 22 21 21 20 20 20 20 19 19 19 19 19 19 19 18 18 18 18 18 18 18 18 18 18 18 18 18 18 18
32 33 33 33 35 35 34 33 33 32 32 31 30 29 28 27 26 25 25 23 22 22 21 21 20 20 20 19 19 19 19 19 19 19 19 18 18 18 18 18 18 18 18 18 18 18 18 18 18
34 34 33 34 36 35 34 33 33 33 33 32 31 30 28 28 27 26 25 24 23 22 21 21 20 20 20 19 19 19 19 19 19 19 19 18 18 18 18 18 18 18 18 18 18 18 18 18 18
34 34 34 34 36 35 34 34 34 34 33 32 31 30 29 28 27 26 25 24 23 22 21 21 20 20 20 20 20 19 19 19 19 19 19 18 18 18 18 18 18 18 18 18 18 18 18 18 18
34 34 34 34 35 36 34 33 33 33 33 32 32 31 30 29 27 26 25 24 24 22 22 21 21 20 20 20 20 19 19 19 19 19 19 19 18 18 18 18 18 18 18 18 18 18 18 18 18
34 35 35 35 34 34 34 31 31 31 31 32 32 31 30 29 28 26 25 25 24 23 22 21 21 21 20 20 19 19 19 19 19 19 19 19 18 18 18 18 18 18 18 18 18 18 18 18 18
35 36 35 35 34 33 33 32 31 30 30 31 31 31 31 30 29 27 26 25 24 23 22 22 21 21 21 20 20 20 19 19 19 19 19 19 19 18 18 18 18 18 18 18 18 18 18 17 17
35 35 35 34 34 32 32 32 30 31 30 30 31 31 31 30 29 28 26 25 25 24 23 22 21 21 21 20 20 20 19 19 19 19 19 19 19 19 19 18 18 18 18 18 18 18 18 17 17
35 33 32 31 31 31 32 32 31 32 32 31 31 31 31 30 29 28 27 25 25 24 23 22 21 21 21 20 20 20 20 19 19 19 19 19 19 19 19 18 18 18 18 18 17 17 17 17 17
34 33 31 30 30 30 30 30 32 33 33 33 32 31 31 30 29 28 27 26 25 24 23 22 21 21 21 21 20 20 20 20 19 19 19 19 19 19 19 18 18 18 18 18 17 17 17 17 17
33 33 34 32 31 30 30 30 31 33 33 33 32 31 31 29 29 28 27 26 25 24 23 22 21 21 21 21 20 20 20 20 19 19 19 19 19 19 19 18 18 18 18 18 17 17 17 17 17
34 34 33 32 30 29 29 30 30 31 32 32 32 31 30 29 29 28 27 26 25 24 23 22 21 21 21 21 20 20 20 20 19 19 19 19 19 19 19 18 18 18 18 18 18 17 17 17 17
33 33 32 32 32 30 29 29 31 31 32 31 31 30 30 29 29 28 27 26 25 24 23 22 21 21 21 20 20 20 20 20 19 19 19 19 19 19 19 18 18 18 18 18 17 17 17 17 17
34 33 32 31 30 31 30 30 32 32 32 31 30 29 28 28 27 27 26 25 25 24 23 22 21 21 21 20 20 20 20 20 19 19 19 19 19 19 18 18 18 18 18 17 17 17 17 17 16
Wind_Speed
9 11 10 6 2 7 17 17 17 16 16 15 15 15 18 16 12 12 11 16 16 16 15 14 14 14 14 14 14 14 14 14 14 14 14 15 15 15 15 15 16 16 17 16 16 17 17 17 17
10 12 9 4 3 12 15 16 16 15 14 14 16 19 20 19 17 14 13 14 16 16 15 15 14 14 14 13 13 13 14 14 13 14 14 14 15 15 15 15 16 16 17 17 17 17 17 17 16
12 15 7 2 13 15 15 14 14 13 12 14 18 18 15 14 15 13 13 15 16 16 17 15 15 14 14 13 13 13 14 13 13 13 14 14 15 15 15 15 15 16 16 17 17 16 16 16 15
8 7 2 9 19 17 15 13 13 14 14 14 15 13 15 14 15 15 14 15 16 17 17 16 15 14 14 13 13 13 13 13 13 13 14 14 14 14 15 14 14 15 16 16 15 15 15 14 12
10 3 6 14 18 16 14 14 15 15 16 17 19 17 16 16 17 16 13 14 15 17 17 16 15 14 13 13 13 13 13 13 13 13 13 13 14 14 14 14 14 15 15 15 14 14 14 12 10
5 1 6 14 17 15 14 14 15 15 15 17 19 18 14 14 14 14 13 13 15 16 17 16 15 14 13 13 12 12 12 12 12 12 12 13 13 13 13 13 14 14 14 13 13 13 12 11 8
3 3 10 15 15 15 14 14 14 14 13 14 17 17 13 14 12 13 12 12 14 15 15 15 15 14 13 13 12 12 12 11 11 11 11 11 12 12 12 12 13 13 13 12 12 11 11 9 6
1 3 11 13 14 15 14 14 14 14 12 10 12 13 14 14 13 13 12 11 11 11 12 13 14 14 13 12 12 12 11 10 10 10 10 10 11 11 11 12 12 12 11 11 10 10 9 7 5
3 4 9 12 13 13 13 14 14 14 13 14 14 18 17 16 14 13 12 11 9 9 8 9 11 12 12 13 13 12 11 10 10 9 9 9 8 9 10 11 12 11 10 9 9 9 8 6 4
4 7 10 12 12 12 12 11 11 12 14 16 17 18 18 15 13 12 11 12 10 9 9 7 8 8 9 9 11 10 9 10 8 8 8 7 6 8 9 13 11 10 10 9 8 8 7 6 5
7 9 9 10 12 11 11 10 10 12 12 15 17 18 16 15 12 11 10 11 10 9 8 9 7 5 6 6 7 6 7 8 7 6 6 5 6 7 8 9 9 9 9 8 8 8 7 6 5
6 8 8 9 10 9 9 10 11 11 13 16 18 17 15 13 12 11 10 10 10 9 8 8 8 6 4 4 4 5 5 6 5 7 4 4 2 3 4 4 7 7 7 5 6 6 5 4 3
3 6 7 7 8 9 9 10 12 13 15 17 18 16 15 13 12 11 10 10 10 9 8 9 8 6 4 3 1 2 3 5 7 7 5 4 2 2 2 2 3 5 6 6 4 3 3 3 2
1 3 5 6 8 8 7 7 9 14 15 16 16 15 14 13 13 12 11 10 10 9 8 9 8 7 4 2 1 1 2 5 6 5 6 5 4 3 2 2 2 2 3 4 4 3 3 2 2
3 2 3 4 6 8 8 4 6 10 14 15 14 14 14 13 13 13 11 11 11 9 8 8 8 8 5 4 3 3 2 4 4 5 6 4 4 4 2 2 2 2 3 3 2 2 2 2 2
8 6 4 5 5 8 7 6 10 11 12 13 13 13 13 11 12 12 13 11 11 10 9 8 8 10 7 4 2 1 3 4 4 5 5 5 4 4 3 2 2 3 3 2 2 2 2 1 1
8 5 7 7 7 8 7 8 13 13 12 12 13 13 13 12 11 11 13 12 11 10 9 7 5 8 8 6 3 2 2 3 3 4 4 5 4 4 3 2 2 3 2 1 2 2 2 1 1
7 8 8 8 8 7 6 8 13 14 13 13 13 13 13 14 13 13 13 13 12 11 10 8 7 7 6 5 4 2 2 3 3 3 4 5 4 4 3 2 3 3 1 1 1 1 1 1 2
10 8 8 7 5 5 5 8 11 13 13 13 13 13 13 13 14 14 13 14 13 11 10 9 8 8 6 4 4 4 3 3 3 3 5 5 4 4 3 1 1 1 1 1 1 1 1 2 1
10 10 8 5 4 4 4 5 8 9 12 13 14 14 14 13 13 13 12 12 13 12 11 10 8 8 8 6 4 3 3 3 3 2 4 4 4 4 4 2 1 2 1 1 1 1 1 2 1
11 10 7 6 8 8 6 6 5 6 7 11 13 14 15 15 15 14 12 12 13 13 12 11 10 9 9 7 5 4 3 2 2 4 3 3 4 5 3 3 2 1 2 2 2 2 1 1 2
12 10 9 10 10 8 7 5 4 5 5 9 11 13 15 15 15 14 13 13 13 13 12 10 10 9 8 7 6 6 5 3 3 3 4 4 4 4 3 2 2 1 1 1 2 2 1 1 2
12 11 11 11 11 9 9 5 5 7 7 8 8 11 13 14 15 15 15 13 12 13 12 11 10 9 9 8 6 5 4 4 3 3 4 4 4 3 3 3 2 2 1 1 0 1 1 1 1
12 12 12 12 12 12 10 9 6 6 6 6 7 8 10 12 13 14 14 12 11 11 11 11 11 9 9 8 7 6 5 4 3 3 4 4 4 4 4 4 3 3 2 2 2 1 1 1 2
14 12 10 11 10 10 9 9 3 8 8 8 9 9 10 10 12 12 13 13 11 11 11 11 11 10 9 9 8 7 6 5 5 5 5 4 3 4 4 4 4 3 3 3 2 2 2 2 2
15 16 13 11 10 7 6 7 3 6 7 7 9 10 11 9 10 12 12 12 11 12 11 12 11 10 10 9 8 7 6 6 5 5 4 4 2 3 4 4 4 4 3 3 3 2 3 3 2
16 16 16 14 13 10 7 5 3 4 7 7 7 8 10 10 10 12 12 12 11 11 10 10 10 9 9 9 8 6 6 5 5 4 4 3 2 3 3 4 4 4 3 3 3 2 2 2 2
17 15 11 12 10 11 9 8 5 6 6 6 7 7 7 9 10 12 12 11 11 11 10 10 9 8 7 7 8 8 7 6 4 4 5 3 3 2 2 3 4 4 4 3 3 2 2 2 1
15 16 12 10 11 11 8 3 2 5 5 5 5 5 5 7 7 9 10 10 10 11 11 10 10 9 8 7 6 5 6 6 6 4 4 4 4 3 4 4 4 4 3 3 2 2 2 1 1
16 15 14 11 10 11 9 4 4 4 6 6 6 8 6 5 5 7 8 7 7 8 10 10 9 9 8 7 7 6 6 6 6 6 5 5 4 5 4 4 3 3 3 3 3 2 2 2 2
Wind_Direction
206 219 219 239 224 72 68 65 64 66 65 63 62 69 65 60 75 91 106 106 105 104 104 99 93 93 92 91 90 91 91 90 90 90 89 90 91 92 93 93 97 98 96 96 102 105 105 105 106
228 228 228 243 71 74 69 68 67 68 75 76 72 76 74 72 84 97 103 107 109 107 104 101 98 96 93 94 93 93 93 91 90 90 91 92 92 93 95 97 98 98 97 96 98 101 104 105 106
251 248 254 83 69 74 74 74 80 81 82 84 77 66 67 83 91 103 113 112 107 102 102 103 100 100 97 96 95 94 94 93 92 92 94 96 97 97 97 100 100 100 101 100 100 101 103 103 105
254 243 167 78 74 75 79 81 86 86 80 80 85 79 73 84 100 111 118 115 112 110 108 107 105 102 99 97 97 95 94 93 94 93 94 98 99 100 97 99 101 102 103 103 104 104 104 104 105
246 268 84 82 81 82 83 85 83 81 82 83 87 93 89 93 106 116 120 116 115 112 112 114 111 107 104 102 100 99 97 96 96 96 96 98 99 101 100 102 102 103 105 105 106 105 106 107 108
267 203 89 86 84 83 83 85 88 88 93 100 102 102 102 112 116 119 116 114 114 116 116 119 118 115 112 108 106 104 103 101 100 99 99 100 102 104 104 107 107 107 107 107 108 110 112 111 112
293 47 86 91 92 84 78 78 86 92 92 101 111 112 119 121 122 118 115 111 111 118 124 131 131 126 120 114 113 112 110 109 109 107 106 109 111 113 113 112 112 111 110 110 112 116 117 115 115
11 57 85 90 93 91 88 84 82 88 85 99 116 117 127 130 131 122 117 110 106 115 125 138 139 138 137 129 126 124 121 120 121 123 124 124 123 123 124 123 119 119 118 118 119 122 122 125 129
52 71 82 93 96 101 103 98 98 99 94 82 83 110 127 137 134 129 123 119 119 121 125 129 131 141 141 137 137 139 135 135 138 140 144 147 148 141 140 129 130 131 131 132 135 137 139 147 165
73 77 82 93 100 105 105 109 117 112 104 99 99 111 128 137 140 141 139 137 138 134 125 120 119 129 134 134 141 152 148 149 159 150 160 174 158 144 136 138 141 144 147 151 159 161 165 180 189
84 90 95 97 102 109 116 118 118 109 112 120 125 132 140 145 149 147 144 141 137 133 125 124 120 116 118 125 143 148 143 150 154 148 156 157 142 142 141 146 153 164 171 179 174 188 200 198 201
93 101 103 103 109 112 107 106 100 102 112 123 132 140 146 150 148 146 140 133 131 128 127 124 111 96 83 91 119 147 149 152 147 149 160 149 150 140 139 161 169 178 186 182 183 201 191 180 192
88 111 113 116 118 112 109 104 107 110 117 126 135 144 151 153 149 141 133 130 131 135 131 113 110 104 92 60 2 130 125 138 142 148 163 154 146 143 145 163 177 187 174 174 195 200 164 169 206
135 124 118 122 120 111 97 104 118 125 131 135 143 152 155 152 149 140 140 140 140 143 137 126 129 129 133 142 153 40 115 124 131 143 149 160 152 146 150 166 199 216 184 179 184 189 167 192 212
199 179 168 166 144 124 115 130 126 135 142 148 153 156 154 155 151 150 151 150 148 147 141 140 150 146 157 171 186 154 149 140 132 134 143 155 147 150 168 182 203 220 193 183 196 187 177 198 196
225 202 215 217 184 156 153 159 155 162 160 158 159 160 159 158 158 156 155 155 149 150 149 164 169 154 160 173 195 160 150 131 122 135 144 153 157 171 188 187 208 203 206 195 201 212 196 204 200
252 220 221 224 217 188 175 161 156 171 167 166 166 165 163 163 164 161 160 158 152 150 154 167 169 152 163 168 178 170 142 131 138 141 149 160 176 177 192 200 189 202 217 198 219 178 184 195 205
261 248 230 223 211 207 180 159 159 174 173 170 170 169 169 169 173 169 165 159 155 153 157 166 171 160 165 168 177 200 169 162 162 158 154 160 185 193 201 209 198 209 191 168 144 151 189 203 220
246 256 244 239 217 213 188 174 173 178 176 169 169 171 172 175 172 169 168 165 161 158 161 169 179 166 171 184 191 186 184 190 179 179 166 168 187 195 210 252 166 204 183 181 187 177 200 214 204
248 254 248 249 233 236 211 191 183 190 184 171 171 173 175 175 168 166 169 169 165 163 166 170 179 175 179 182 191 192 194 192 179 168 149 171 180 194 203 209 207 185 189 199 216 194 228 245 201
253 254 257 259 253 244 232 217 201 201 205 174 176 177 178 177 172 169 172 175 170 169 173 181 179 176 185 180 186 195 177 211 177 157 161 174 178 197 217 171 208 223 179 181 202 196 206 243 248
253 257 251 252 256 260 249 242 206 183 233 201 184 179 178 177 173 171 176 179 178 174 176 171 170 173 177 183 196 194 189 190 190 169 159 169 182 191 191 182 178 212 196 181 206 165 206 234 248
254 266 266 262 267 270 269 263 230 175 208 215 200 188 178 174 174 173 179 181 180 176 172 168 167 171 176 186 193 200 203 191 179 167 161 171 180 186 185 178 177 172 193 188 185 113 191 220 245
261 264 264 262 264 258 252 251 211 184 183 194 202 198 172 170 169 169 172 170 175 171 166 164 165 171 176 184 190 194 202 196 180 175 174 186 180 183 183 180 178 179 195 192 195 207 224 234 258
243 249 249 246 246 256 271 259 182 160 167 179 184 178 163 164 163 162 163 164 166 166 165 164 166 173 178 183 189 190 200 199 195 199 197 198 188 178 183 186 179 185 193 197 196 188 235 239 242
239 242 247 255 257 263 277 265 199 168 158 152 149 154 152 161 161 160 165 164 166 168 166 165 167 174 180 184 187 188 192 200 203 208 205 202 204 181 174 175 180 189 198 208 181 206 215 214 230
244 244 251 255 259 261 249 249 203 173 157 149 139 142 145 153 162 158 162 162 164 165 162 164 164 172 181 182 180 186 193 204 202 187 204 206 194 189 168 175 185 190 203 217 188 203 218 197 223
243 251 255 257 261 264 245 235 215 188 170 144 140 137 135 146 157 158 162 163 163 165 163 160 160 167 174 179 186 190 193 197 192 199 198 198 188 184 173 180 190 195 199 200 198 199 200 205 213
230 241 252 264 267 265 262 245 189 165 137 141 134 124 122 130 141 150 153 157 160 162 163 165 162 167 178 185 186 186 187 190 190 198 197 190 186 186 192 198 199 190 188 189 184 193 198 202 213
239 238 241 247 260 272 274 229 171 135 139 142 127 103 86 88 114 130 134 143 155 164 164 161 165 174 179 180 181 186 183 185 189 194 195 190 187 194 194 192 190 188 180 180 180 193 198 200 216
Height
1475 1474 1475 1478 1476 1477 1482 1479 1477 1479 1482 1486 1487 1488 1494 1496 1503 1516 1518 1517 1518 1518 1518 1518 1519 1519 1520 1520 1521 1522 1522 1523 1523 1524 1524 1524 1524 1525 1525 1526 1526 1528 1528 1529 1530 1532 1534 1536 1537
1474 1475 1478 1476 1476 1488 1489 1481 1482 1484 1486 1488 1490 1493 1498 1503 1508 1514 1518 1520 1520 1521 1521 1521 1521 1522 1522 1523 1524 1524 1525 1526 1526 1527 1527 1527 1527 1528 1528 1529 1530 1531 1531 1532 1533 1534 1537 1538 1540
1475 1476 1477 1470 1474 1487 1490 1482 1483 1485 1487 1490 1494 1499 1503 1509 1513 1516 1520 1521 1522 1523 1522 1523 1524 1524 1525 1526 1526 1527 1527 1528 1529 1529 1529 1530 1530 1531 1531 1532 1533 1533 1535 1536 1537 1538 1540 1542 1543
1476 1475 1472 1471 1480 1479 1480 1481 1483 1486 1489 1491 1496 1503 1510 1513 1516 1519 1521 1523 1524 1525 1524 1525 1526 1527 1527 1528 1529 1529 1530 1531 1531 1532 1532 1533 1533 1534 1534 1535 1536 1536 1537 1539 1540 1542 1543 1545 1546
1477 1473 1471 1476 1479 1478 1479 1481 1485 1488 1491 1496 1501 1508 1514 1518 1519 1521 1523 1525 1526 1527 1527 1527 1528 1529 1529 1530 1531 1531 1532 1533 1533 1534 1535 1535 1536 1537 1537 1537 1538 1539 1541 1542 1543 1545 1546 1547 1549
1476 1469 1477 1484 1482 1479 1480 1483 1486 1491 1495 1499 1504 1511 1517 1521 1522 1523 1525 1527 1528 1528 1529 1529 1530 1531 1532 1532 1533 1534 1534 1535 1536 1537 1537 1538 1539 1539 1540 1541 1542 1543 1544 1545 1546 1547 1549 1550 1552
1473 1470 1477 1480 1484 1483 1483 1485 1487 1491 1495 1499 1504 1510 1518 1522 1524 1525 1527 1529 1530 1531 1531 1531 1532 1533 1534 1535 1535 1536 1537 1537 1538 1539 1540 1540 1541 1542 1543 1544 1545 1546 1547 1548 1549 1550 1551 1553 1554
1469 1471 1475 1479 1484 1486 1485 1488 1490 1494 1497 1500 1503 1509 1517 1522 1525 1526 1528 1530 1531 1532 1533 1534 1535 1535 1536 1537 1537 1538 1539 1540 1540 1541 1542 1543 1544 1545 1545 1546 1547 1548 1549 1550 1551 1552 1553 1555 1557
1469 1474 1481 1479 1482 1484 1485 1489 1493 1496 1499 1502 1505 1510 1517 1522 1525 1527 1529 1531 1533 1534 1535 1536 1537 1538 1539 1539 1539 1540 1541 1542 1542 1543 1544 1545 1546 1547 1548 1549 1550 1551 1552 1553 1554 1554 1556 1557 1559
1469 1477 1477 1474 1477 1481 1485 1488 1491 1494 1499 1505 1510 1515 1519 1523 1525 1527 1530 1532 1533 1535 1536 1537 1538 1539 1541 1542 1542 1542 1543 1543 1544 1545 1546 1547 1548 1549 1550 1551 1552 1553 1554 1555 1556 1557 1558 1559 1560
1468 1474 1472 1473 1477 1480 1484 1486 1489 1493 1499 1505 1511 1516 1520 1523 1525 1527 1529 1531 1534 1535 1537 1538 1539 1541 1542 1543 1543 1544 1545 1545 1546 1546 1547 1548 1550 1550 1551 1552 1553 1554 1555 1556 1557 1558 1559 1560 1562
1468 1471 1472 1474 1478 1480 1482 1485 1489 1494 1500 1505 1511 1515 1519 1522 1525 1527 1529 1532 1534 1536 1538 1539 1540 1541 1542 1543 1545 1545 1546 1546 1547 1548 1549 1550 1551 1552 1552 1553 1554 1555 1556 1557 1558 1559 1561 1561 1563
1469 1471 1472 1474 1477 1480 1483 1487 1491 1496 1501 1506 1511 1515 1519 1522 1524 1527 1529 1532 1534 1536 1538 1539 1539 1540 1542 1543 1544 1546 1547 1547 1548 1549 1549 1550 1551 1552 1553 1554 1555 1556 1557 1558 1559 1560 1561 1562 1562
1471 1470 1472 1474 1477 1481 1485 1489 1492 1497 1502 1506 1511 1514 1517 1520 1523 1526 1529 1532 1534 1536 1538 1538 1539 1540 1541 1543 1544 1546 1547 1548 1548 1549 1550 1551 1552 1552 1553 1554 1555 1556 1557 1558 1559 1560 1560 1561 1562
1470 1473 1474 1474 1476 1480 1486 1493 1493 1497 1501 1505 1509 1513 1516 1519 1522 1525 1528 1531 1533 1535 1537 1538 1539 1540 1541 1543 1545 1546 1547 1548 1549 1549 1550 1550 1551 1552 1553 1554 1555 1556 1557 1558 1558 1559 1560 1561 1561
1469 1476 1486 1476 1474 1477 1486 1500 1493 1496 1499 1503 1507 1511 1515 1518 1521 1524 1527 1530 1532 1534 1536 1537 1539 1539 1541 1543 1544 1546 1547 1548 1549 1549 1549 1550 1551 1552 1552 1553 1554 1555 1556 1557 1558 1558 1559 1560 1560
1475 1488 1488 1481 1471 1472 1479 1490 1488 1492 1495 1500 1504 1508 1513 1517 1520 1523 1526 1529 1531 1533 1534 1536 1538 1539 1541 1542 1544 1545 1546 1547 1548 1548 1548 1549 1550 1551 1552 1553 1554 1555 1556 1557 1557 1557 1558 1559 1559
1489 1485 1483 1481 1470 1469 1475 1481 1483 1487 1491 1496 1500 1505 1510 1514 1518 1521 1524 1527 1529 1531 1533 1535 1537 1538 1540 1542 1543 1544 1545 1546 1547 1547 1548 1548 1549 1550 1551 1552 1553 1554 1555 1556 1556 1557 1557 1558 1558
1472 1477 1480 1473 1464 1467 1472 1477 1480 1481 1486 1490 1496 1502 1507 1511 1515 1519 1522 1525 1528 1530 1531 1534 1536 1537 1538 1540 1542 1543 1544 1545 1546 1547 1547 1548 1548 1549 1550 1551 1552 1552 1554 1554 1555 1556 1556 1556 1557
1469 1476 1476 1470 1463 1466 1471 1475 1475 1477 1480 1486 1491 1497 1503 1508 1512 1516 1520 1523 1525 1527 1529 1532 1534 1535 1537 1539 1540 1542 1543 1544 1545 1546 1546 1547 1547 1548 1549 1550 1551 1551 1552 1553 1554 1554 1555 1555 1556
1469 1472 1473 1473 1466 1463 1470 1479 1477 1477 1479 1483 1488 1493 1498 1504 1508 1513 1517 1520 1523 1525 1527 1530 1531 1533 1535 1537 1539 1541 1542 1543 1544 1545 1545 1545 1546 1546 1547 1548 1549 1550 1551 1551 1552 1552 1553 1554 1555
1473 1462 1465 1468 1473 1475 1473 1494 1484 1480 1483 1481 1484 1488 1493 1499 1505 1510 1514 1517 1520 1523 1525 1527 1529 1531 1533 1535 1537 1539 1540 1541 1542 1543 1544 1544 1545 1545 1546 1547 1548 1549 1549 1550 1550 1551 1551 1552 1552
1465 1459 1461 1464 1470 1478 1475 1488 1491 1480 1486 1483 1483 1485 1489 1495 1500 1506 1510 1514 1518 1521 1523 1525 1527 1529 1531 1533 1535 1537 1539 1540 1541 1542 1543 1543 1543 1544 1545 1545 1546 1547 1548 1548 1549 1550 1550 1550 1551
1459 1462 1464 1465 1472 1491 1481 1486 1493 1481 1482 1481 1481 1484 1486 1491 1497 1502 1507 1511 1515 1518 1521 1523 1524 1526 1529 1531 1533 1535 1537 1538 1540 1541 1541 1542 1542 1543 1543 1544 1544 1545 1546 1546 1547 1548 1548 1549 1549
1463 1475 1490 1495 1496 1497 1478 1480 1482 1472 1471 1474 1477 1482 1484 1490 1494 1499 1504 1508 1512 1516 1518 1520 1522 1524 1526 1528 1530 1532 1534 1536 1537 1539 1540 1541 1541 1541 1542 1542 1543 1543 1544 1545 1545 1546 1546 1546 1547
1464 1470 1491 1505 1505 1497 1487 1489 1476 1466 1467 1469 1473 1478 1482 1488 1492 1496 1501 1506 1509 1513 1516 1518 1519 1522 1524 1526 1528 1530 1532 1534 1535 1537 1538 1539 1540 1540 1541 1541 1541 1542 1542 1543 1543 1543 1544 1544 1545
1466 1466 1461 1476 1485 1498 1494 1484 1472 1464 1466 1468 1471 1476 1480 1485 1489 1493 1499 1503 1507 1510 1513 1515 1517 1519 1522 1524 1526 1528 1530 1532 1533 1535 1536 1537 1538 1539 1539 1539 1540 1540 1540 1541 1541 1542 1542 1542 1543
1457 1459 1465 1476 1495 1504 1497 1489 1482 1475 1469 1468 1471 1475 1479 1483 1487 1491 1497 1501 1505 1508 1511 1513 1515 1517 1519 1521 1523 1525 1527 1529 1531 1532 1534 1535 1536 1536 1537 1537 1538 1538 1538 1539 1539 1540 1540 1541 1541
1460 1463 1466 1469 1474 1491 1501 1497 1471 1468 1467 1470 1473 1476 1480 1483 1487 1489 1495 1500 1503 1506 1508 1511 1513 1515 1517 1519 1520 1523 1524 1526 1528 1529 1530 1532 1533 1533 1534 1535 1535 1536 1536 1537 1537 1538 1538 1539 1539
1452 1457 1463 1479 1480 1476 1484 1488 1462 1464 1466 1470 1474 1478 1483 1484 1487 1490 1493 1497 1502 1505 1507 1508 1510 1513 1515 1516 1518 1520 1522 1523 1525 1526 1527 1529 1530 1531 1532 1532 1533 1534 1534 1535 1535 1536 1536 1537 1537